| time (UTC) | temp C | wind direction | speed KPH | gust KPH | rain 1hr cm | rain 24hr cm | rain mn cm | humidity % | barometer mb |
| 20260906113446 | 26 | 222 | 0.0 | 3.2 | 0.00 | 0.00 | 0.00 | 94 | 1008.6 |
| 20260906112947 | 26 | 222 | 0.0 | 3.2 | 0.00 | 0.00 | 0.00 | 94 | 1008.5 |
| 20260906112816 | 26 | 222 | 0.0 | 3.2 | 0.00 | 0.00 | 0.00 | 94 | 1008.5 |
| 20260906111946 | 26 | 222 | 0.0 | 1.6 | 0.00 | 0.00 | 0.00 | 94 | 1008.4 |
| 20260906111448 | 26 | 222 | 0.0 | 4.8 | 0.00 | 0.00 | 0.00 | 94 | 1008.4 |
| 20260906110945 | 26 | 222 | 0.0 | 4.8 | 0.00 | 0.00 | 0.00 | 94 | 1008.3 |
| 20260906110444 | 26 | 222 | 0.0 | 8.0 | 0.00 | 0.00 | 0.00 | 94 | 1008.2 |
| 20260906105946 | 26 | 222 | 0.0 | 8.0 | 0.00 | 0.00 | 0.00 | 94 | 1008.2 |
| 20260906105446 | 26 | 222 | 1.6 | 8.0 | 0.00 | 0.00 | 0.00 | 94 | 1008.2 |
| 20260906104942 | 26 | 222 | 1.6 | 8.0 | 0.00 | 0.00 | 0.00 | 94 | 1008.1 |
| 20260906104441 | 26 | 222 | 1.6 | 8.0 | 0.00 | 0.00 | 0.00 | 94 | 1008.1 |
| 20260906103939 | 26 | 222 | 1.6 | 8.0 | 0.00 | 0.00 | 0.00 | 94 | 1008.1 |
| 20260906103437 | 26 | 222 | 1.6 | 8.0 | 0.00 | 0.00 | 0.00 | 94 | 1008.1 |
| 20260906102937 | 26 | 222 | 3.2 | 8.0 | 0.00 | 0.00 | 0.00 | 94 | 1008.2 |
| 20260906102437 | 26 | 222 | 3.2 | 6.4 | 0.00 | 0.00 | 0.00 | 94 | 1008.1 |
| 20260906101936 | 26 | 222 | 3.2 | 6.4 | 0.00 | 0.00 | 0.00 | 94 | 1008.0 |
| 20260906101433 | 26 | 222 | 3.2 | 6.4 | 0.00 | 0.00 | 0.00 | 94 | 1008.0 |
| 20260906100931 | 26 | 222 | 1.6 | 6.4 | 0.00 | 0.00 | 0.00 | 94 | 1007.9 |
| 20260906100519 | 26 | 222 | 1.6 | 6.4 | 0.00 | 0.00 | 0.00 | 94 | 1007.8 |
| 20260906100453 | 26 | 222 | 1.6 | 6.4 | 0.00 | 0.00 | 0.00 | 94 | 1007.9 |
| 20260906094923 | 26 | 222 | 0.0 | 0.0 | 0.00 | 0.00 | 0.00 | 93 | 1007.8 |
| 20260906094422 | 26 | 222 | 0.0 | 0.0 | 0.00 | 0.00 | 0.00 | 93 | 1007.8 |
| 20260906093921 | 26 | 222 | 0.0 | 1.6 | 0.00 | 0.00 | 0.00 | 93 | 1007.7 |
| 20260906093419 | 26 | 222 | 0.0 | 3.2 | 0.00 | 0.00 | 0.00 | 93 | 1007.8 |
| 20260906092916 | 26 | 222 | 0.0 | 3.2 | 0.00 | 0.00 | 0.00 | 94 | 1007.8 |
| 20260906092415 | 26 | 222 | 0.0 | 3.2 | 0.00 | 0.00 | 0.00 | 94 | 1007.7 |
| 20260906091913 | 26 | 222 | 0.0 | 3.2 | 0.00 | 0.00 | 0.00 | 94 | 1007.7 |
| 20260906091504 | 26 | 222 | 1.6 | 3.2 | 0.00 | 0.00 | 0.00 | 94 | 1007.6 |
| 20260906091443 | 26 | 222 | 0.0 | 3.2 | 0.00 | 0.00 | 0.00 | 94 | 1007.6 |
| 20260906085912 | 26 | 222 | 3.2 | 8.0 | 0.00 | 0.00 | 0.00 | 94 | 1007.8 |
| 20260906085406 | 26 | 222 | 3.2 | 8.0 | 0.00 | 0.00 | 0.00 | 94 | 1007.8 |
| 20260906084905 | 26 | 222 | 1.6 | 6.4 | 0.00 | 0.00 | 0.00 | 94 | 1007.8 |
| 20260906084409 | 26 | 222 | 1.6 | 6.4 | 0.00 | 0.00 | 0.00 | 94 | 1007.9 |
| 20260906083905 | 26 | 222 | 0.0 | 4.8 | 0.00 | 0.00 | 0.00 | 94 | 1007.9 |
| 20260906083403 | 26 | 222 | 1.6 | 4.8 | 0.00 | 0.00 | 0.00 | 94 | 1007.9 |
| 20260906082902 | 26 | 222 | 0.0 | 4.8 | 0.00 | 0.00 | 0.00 | 94 | 1007.8 |
| 20260906082403 | 26 | 222 | 0.0 | 3.2 | 0.00 | 0.00 | 0.00 | 94 | 1007.9 |
| 20260906081903 | 26 | 222 | 0.0 | 3.2 | 0.00 | 0.00 | 0.00 | 94 | 1007.8 |
| 20260906081401 | 26 | 222 | 0.0 | 3.2 | 0.00 | 0.00 | 0.00 | 94 | 1007.8 |
| 20260906080909 | 26 | 222 | 0.0 | 3.2 | 0.00 | 0.00 | 0.00 | 94 | 1008.0 |
| 20260906080359 | 26 | 222 | 0.0 | 3.2 | 0.00 | 0.00 | 0.00 | 94 | 1008.0 |
| 20260906075850 | 26 | 222 | 0.0 | 1.6 | 0.00 | 0.00 | 0.00 | 94 | 1008.0 |
| 20260906075345 | 26 | 222 | 1.6 | 3.2 | 0.00 | 0.00 | 0.00 | 94 | 1007.8 |
| 20260906075331 | 26 | 222 | 0.0 | 3.2 | 0.00 | 0.00 | 0.00 | 94 | 1007.9 |
| 20260906074338 | 26 | 222 | 0.0 | 3.2 | 0.00 | 0.00 | 0.00 | 93 | 1008.0 |
| 20260906073837 | 26 | 222 | 0.0 | 3.2 | 0.00 | 0.00 | 0.00 | 93 | 1008.0 |
| 20260906073337 | 26 | 222 | 0.0 | 4.8 | 0.00 | 0.00 | 0.00 | 93 | 1007.9 |
| 20260906072836 | 26 | 222 | 1.6 | 4.8 | 0.00 | 0.00 | 0.00 | 93 | 1007.9 |
| 20260906072335 | 26 | 222 | 1.6 | 4.8 | 0.00 | 0.00 | 0.00 | 93 | 1007.9 |
| 20260906071833 | 26 | 222 | 0.0 | 4.8 | 0.00 | 0.00 | 0.00 | 93 | 1007.9 |
| 20260906071332 | 26 | 222 | 0.0 | 3.2 | 0.00 | 0.00 | 0.00 | 93 | 1008.0 |
| 20260906071150 | 26 | 222 | 1.6 | 4.8 | 0.00 | 0.00 | 0.00 | 93 | 1008.0 |
| 20260906070329 | 26 | 222 | 1.6 | 4.8 | 0.00 | 0.00 | 0.00 | 93 | 1008.0 |
| 20260906065830 | 26 | 222 | 1.6 | 4.8 | 0.00 | 0.00 | 0.00 | 93 | 1007.9 |
| 20260906065552 | 26 | 222 | 1.6 | 4.8 | 0.00 | 0.00 | 0.00 | 92 | 1007.9 |
| 20260906064829 | 26 | 222 | 1.6 | 6.4 | 0.00 | 0.00 | 0.00 | 92 | 1007.8 |
| 20260906064328 | 26 | 222 | 1.6 | 6.4 | 0.00 | 0.00 | 0.00 | 92 | 1007.9 |
| 20260906063834 | 26 | 222 | 1.6 | 6.4 | 0.00 | 0.00 | 0.00 | 92 | 1007.9 |
| 20260906063331 | 26 | 222 | 1.6 | 6.4 | 0.00 | 0.00 | 0.00 | 92 | 1007.9 |
| 20260906062928 | 26 | 222 | 1.6 | 4.8 | 0.00 | 0.00 | 0.00 | 92 | 1008.0 |
| 20260906061830 | 26 | 222 | 1.6 | 6.4 | 0.00 | 0.00 | 0.00 | 92 | 1008.1 |
| 20260906061326 | 26 | 222 | 3.2 | 6.4 | 0.00 | 0.00 | 0.00 | 92 | 1008.1 |
| 20260906060820 | 26 | 222 | 1.6 | 6.4 | 0.00 | 0.00 | 0.00 | 92 | 1008.1 |
| 20260906060320 | 26 | 222 | 1.6 | 4.8 | 0.00 | 0.00 | 0.00 | 92 | 1008.2 |
| 20260906055818 | 27 | 222 | 1.6 | 3.2 | 0.00 | 0.00 | 0.00 | 92 | 1008.3 |
| 20260906055316 | 27 | 222 | 0.0 | 3.2 | 0.00 | 0.00 | 0.00 | 92 | 1008.4 |
| 20260906055132 | 27 | 222 | 0.0 | 3.2 | 0.00 | 0.00 | 0.00 | 92 | 1008.3 |
| 20260906054313 | 27 | 222 | 0.0 | 1.6 | 0.00 | 0.00 | 0.00 | 92 | 1008.4 |
| 20260906053827 | 27 | 222 | 0.0 | 1.6 | 0.00 | 0.00 | 0.00 | 92 | 1008.4 |
| 20260906052307 | 27 | 222 | 0.0 | 1.6 | 0.00 | 0.00 | 0.00 | 92 | 1008.6 |
| 20260906051807 | 27 | 222 | 0.0 | 3.2 | 0.00 | 0.00 | 0.00 | 91 | 1008.7 |
| 20260906051320 | 27 | 222 | 0.0 | 3.2 | 0.00 | 0.00 | 0.00 | 91 | 1008.8 |
| 20260906050803 | 27 | 222 | 0.0 | 3.2 | 0.00 | 0.00 | 0.00 | 91 | 1008.9 |
| 20260906050304 | 27 | 221 | 0.0 | 3.2 | 0.00 | 0.00 | 0.00 | 91 | 1008.9 |
| 20260906050145 | 27 | 221 | 0.0 | 4.8 | 0.00 | 0.00 | 0.00 | 91 | 1008.9 |
| 20260906045643 | 27 | 221 | 0.0 | 4.8 | 0.00 | 0.00 | 0.00 | 91 | 1008.9 |
| 20260906044801 | 27 | 221 | 0.0 | 4.8 | 0.00 | 0.00 | 0.00 | 91 | 1008.8 |
| 20260906044301 | 27 | 221 | 0.0 | 4.8 | 0.00 | 0.00 | 0.00 | 91 | 1008.8 |
| 20260906043803 | 27 | 221 | 1.6 | 3.2 | 0.00 | 0.00 | 0.00 | 91 | 1008.8 |
| 20260906043302 | 27 | 221 | 1.6 | 8.0 | 0.00 | 0.00 | 0.00 | 91 | 1008.6 |
| 20260906042801 | 27 | 221 | 1.6 | 8.0 | 0.00 | 0.00 | 0.00 | 91 | 1008.7 |
| 20260906042618 | 27 | 221 | 1.6 | 6.4 | 0.00 | 0.00 | 0.00 | 91 | 1008.7 |
| 20260906042118 | 27 | 221 | 1.6 | 12.9 | 0.00 | 0.00 | 0.00 | 91 | 1008.8 |
| 20260906041255 | 27 | 221 | 3.2 | 12.9 | 0.00 | 0.00 | 0.00 | 90 | 1008.8 |
| 20260906040754 | 27 | 221 | 3.2 | 12.9 | 0.00 | 0.00 | 0.00 | 90 | 1008.9 |
| 20260906040629 | 27 | 221 | 4.8 | 12.9 | 0.00 | 0.00 | 0.00 | 90 | 1008.9 |
| 20260906035754 | 28 | 221 | 4.8 | 12.9 | 0.00 | 0.00 | 0.00 | 91 | 1009.0 |
| 20260906035255 | 28 | 221 | 3.2 | 11.3 | 0.00 | 0.00 | 0.00 | 91 | 1009.0 |
| 20260906034755 | 28 | 221 | 3.2 | 11.3 | 0.00 | 0.00 | 0.00 | 91 | 1009.1 |
| 20260906034254 | 28 | 221 | 4.8 | 11.3 | 0.00 | 0.00 | 0.00 | 91 | 1009.0 |
| 20260906033754 | 28 | 221 | 4.8 | 12.9 | 0.00 | 0.00 | 0.00 | 91 | 1008.9 |
| 20260906033254 | 28 | 221 | 6.4 | 14.5 | 0.00 | 0.00 | 0.00 | 91 | 1008.9 |
| 20260906032756 | 28 | 221 | 4.8 | 14.5 | 0.00 | 0.00 | 0.00 | 91 | 1009.0 |
| 20260906032254 | 28 | 221 | 4.8 | 12.9 | 0.00 | 0.00 | 0.00 | 91 | 1009.1 |
| 20260906031754 | 28 | 221 | 4.8 | 12.9 | 0.00 | 0.00 | 0.00 | 91 | 1009.1 |
| 20260906031256 | 28 | 221 | 4.8 | 14.5 | 0.00 | 0.00 | 0.00 | 90 | 1009.1 |
| 20260906030754 | 28 | 221 | 4.8 | 14.5 | 0.00 | 0.00 | 0.00 | 90 | 1009.0 |
| 20260906030636 | 28 | 221 | 3.2 | 12.9 | 0.00 | 0.00 | 0.00 | 90 | 1009.1 |
| 20260906025754 | 28 | 221 | 4.8 | 12.9 | 0.00 | 0.00 | 0.00 | 90 | 1009.0 |
| 20260906025255 | 28 | 221 | 6.4 | 14.5 | 0.00 | 0.00 | 0.00 | 90 | 1009.0 |
| 20260906024759 | 28 | 221 | 6.4 | 14.5 | 0.00 | 0.00 | 0.00 | 90 | 1009.0 |
| 20260906024253 | 28 | 221 | 6.4 | 14.5 | 0.00 | 0.00 | 0.00 | 90 | 1008.9 |
| 20260906023752 | 28 | 221 | 8.0 | 14.5 | 0.00 | 0.00 | 0.00 | 90 | 1008.9 |
| 20260906023252 | 28 | 221 | 8.0 | 14.5 | 0.00 | 0.00 | 0.00 | 90 | 1008.7 |
| 20260906022752 | 28 | 221 | 6.4 | 12.9 | 0.00 | 0.00 | 0.00 | 89 | 1008.8 |
| 20260906022254 | 28 | 221 | 4.8 | 12.9 | 0.00 | 0.00 | 0.00 | 89 | 1008.8 |
| 20260906021756 | 28 | 221 | 3.2 | 9.7 | 0.00 | 0.00 | 0.00 | 89 | 1008.9 |
| 20260906021250 | 28 | 221 | 4.8 | 11.3 | 0.00 | 0.00 | 0.00 | 89 | 1009.0 |
| 20260906020748 | 28 | 221 | 4.8 | 17.7 | 0.00 | 0.00 | 0.00 | 89 | 1009.0 |
| 20260906020247 | 28 | 221 | 4.8 | 17.7 | 0.00 | 0.00 | 0.00 | 89 | 1008.9 |
| 20260906015909 | 28 | 221 | 6.4 | 17.7 | 0.00 | 0.00 | 0.00 | 89 | 1008.9 |
| 20260906015137 | 28 | 221 | 4.8 | 9.7 | 0.00 | 0.00 | 0.00 | 88 | 1008.8 |
| 20260906014251 | 28 | 221 | 4.8 | 8.0 | 0.00 | 0.00 | 0.00 | 88 | 1008.9 |
| 20260906014117 | 28 | 221 | 4.8 | 12.9 | 0.00 | 0.00 | 0.00 | 88 | 1008.9 |
| 20260906013243 | 28 | 221 | 4.8 | 12.9 | 0.00 | 0.00 | 0.00 | 88 | 1008.9 |
| 20260906012745 | 28 | 221 | 4.8 | 12.9 | 0.00 | 0.00 | 0.00 | 87 | 1008.8 |
| 20260906012246 | 28 | 221 | 4.8 | 12.9 | 0.00 | 0.00 | 0.00 | 87 | 1008.7 |
| 20260906011744 | 28 | 221 | 4.8 | 12.9 | 0.00 | 0.00 | 0.00 | 87 | 1008.8 |
| 20260906011321 | 28 | 221 | 4.8 | 9.7 | 0.00 | 0.00 | 0.00 | 87 | 1008.7 |
| 20260906011252 | 28 | 221 | 4.8 | 9.7 | 0.00 | 0.00 | 0.00 | 87 | 1008.8 |
| 20260906010643 | 28 | 221 | 4.8 | 9.7 | 0.00 | 0.00 | 0.00 | 86 | 1008.8 |
| 20260906005741 | 28 | 221 | 4.8 | 9.7 | 0.00 | 0.00 | 0.00 | 86 | 1008.7 |
| 20260906005308 | 28 | 221 | 4.8 | 9.7 | 0.00 | 0.00 | 0.00 | 86 | 1008.7 |
| 20260906004843 | 28 | 221 | 3.2 | 9.7 | 0.00 | 0.00 | 0.00 | 85 | 1008.9 |
| 20260906004810 | 29 | 221 | 4.8 | 11.3 | 0.00 | 0.00 | 0.00 | 85 | 1008.8 |
| 20260906004741 | 28 | 221 | 4.8 | 12.9 | 0.00 | 0.00 | 0.00 | 86 | 1008.8 |
| 20260906004433 | 28 | 221 | 4.8 | 12.9 | 0.00 | 0.00 | 0.00 | 85 | 1008.8 |
| 20260906004008 | 28 | 221 | 3.2 | 9.7 | 0.00 | 0.00 | 0.00 | 85 | 1008.9 |
| 20260906002511 | 29 | 221 | 4.8 | 11.3 | 0.00 | 0.00 | 0.00 | 84 | 1008.6 |
| 20260906002321 | 29 | 221 | 4.8 | 11.3 | 0.00 | 0.00 | 0.00 | 84 | 1008.7 |
| 20260906001416 | 29 | 221 | 4.8 | 12.9 | 0.00 | 0.00 | 0.00 | 83 | 1008.6 |
| 20260906001319 | 29 | 221 | 4.8 | 11.3 | 0.00 | 0.00 | 0.00 | 84 | 1008.6 |
| 20260906000241 | 29 | 221 | 6.4 | 14.5 | 0.00 | 0.00 | 0.00 | 83 | 1008.6 |
| 20260905235738 | 29 | 221 | 6.4 | 14.5 | 0.00 | 0.00 | 0.00 | 82 | 1008.5 |
| 20260905235240 | 30 | 221 | 6.4 | 12.9 | 0.00 | 0.00 | 0.00 | 82 | 1008.7 |
| 20260905234900 | 30 | 221 | 6.4 | 14.5 | 0.00 | 0.00 | 0.00 | 81 | 1008.7 |
| 20260905233736 | 30 | 221 | 8.0 | 19.3 | 0.00 | 0.00 | 0.00 | 79 | 1008.6 |
| 20260905233351 | 30 | 221 | 8.0 | 12.9 | 0.00 | 0.00 | 0.00 | 77 | 1008.5 |
| 20260905232501 | 31 | 221 | 3.2 | 9.7 | 0.00 | 0.00 | 0.00 | 73 | 1008.4 |
| 20260905231724 | 31 | 221 | 3.2 | 8.0 | 0.00 | 0.00 | 0.00 | 72 | 1008.1 |
| 20260905231452 | 31 | 221 | 4.8 | 9.7 | 0.00 | 0.00 | 0.00 | 71 | 1008.2 |
| 20260905230725 | 31 | 221 | 3.2 | 9.7 | 0.00 | 0.00 | 0.00 | 71 | 1008.2 |
| 20260905230223 | 31 | 221 | 3.2 | 9.7 | 0.00 | 0.00 | 0.00 | 71 | 1008.2 |
| 20260905230108 | 31 | 221 | 3.2 | 9.7 | 0.00 | 0.00 | 0.00 | 71 | 1008.1 |
| 20260905225222 | 32 | 221 | 3.2 | 9.7 | 0.00 | 0.00 | 0.00 | 70 | 1008.1 |
| 20260905224723 | 32 | 221 | 3.2 | 12.9 | 0.00 | 0.00 | 0.00 | 69 | 1008.1 |
| 20260905224536 | 32 | 221 | 3.2 | 12.9 | 0.00 | 0.00 | 0.00 | 69 | 1008.1 |
| 20260905224058 | 32 | 221 | 3.2 | 12.9 | 0.00 | 0.00 | 0.00 | 69 | 1008.0 |
| 20260905223609 | 32 | 221 | 4.8 | 12.9 | 0.00 | 0.00 | 0.00 | 69 | 1008.0 |
| 20260905222714 | 32 | 221 | 4.8 | 9.7 | 0.00 | 0.00 | 0.00 | 68 | 1008.1 |
| 20260905222211 | 32 | 221 | 3.2 | 12.9 | 0.00 | 0.00 | 0.00 | 68 | 1008.1 |
| 20260905221709 | 32 | 221 | 3.2 | 12.9 | 0.00 | 0.00 | 0.00 | 69 | 1008.1 |
| 20260905221210 | 32 | 221 | 3.2 | 12.9 | 0.00 | 0.00 | 0.00 | 68 | 1008.1 |
| 20260905220711 | 32 | 221 | 3.2 | 12.9 | 0.00 | 0.00 | 0.00 | 69 | 1008.2 |
| 20260905220207 | 32 | 221 | 3.2 | 11.3 | 0.00 | 0.00 | 0.00 | 67 | 1008.4 |
| 20260905220028 | 32 | 221 | 4.8 | 12.9 | 0.00 | 0.00 | 0.00 | 66 | 1008.5 |
| 20260905215204 | 32 | 221 | 4.8 | 12.9 | 0.00 | 0.00 | 0.00 | 66 | 1008.6 |
| 20260905214704 | 33 | 221 | 4.8 | 12.9 | 0.00 | 0.00 | 0.00 | 64 | 1008.6 |
| 20260905214203 | 33 | 221 | 3.2 | 12.9 | 0.00 | 0.00 | 0.00 | 64 | 1008.5 |
| 20260905214015 | 33 | 220 | 3.2 | 9.7 | 0.00 | 0.00 | 0.00 | 62 | 1008.6 |
| 20260905213153 | 33 | 220 | 4.8 | 11.3 | 0.00 | 0.00 | 0.00 | 64 | 1008.4 |
| 20260905212646 | 34 | 220 | 4.8 | 12.9 | 0.00 | 0.00 | 0.00 | 60 | 1008.3 |
| 20260905212140 | 34 | 220 | 3.2 | 12.9 | 0.00 | 0.00 | 0.00 | 60 | 1008.3 |
| 20260905211639 | 34 | 220 | 4.8 | 12.9 | 0.00 | 0.00 | 0.00 | 61 | 1008.4 |
| 20260905211137 | 35 | 220 | 3.2 | 12.9 | 0.00 | 0.00 | 0.00 | 60 | 1008.3 |
| 20260905210638 | 35 | 220 | 3.2 | 12.9 | 0.00 | 0.00 | 0.00 | 58 | 1008.3 |
| 20260905210137 | 35 | 220 | 4.8 | 12.9 | 0.00 | 0.00 | 0.00 | 57 | 1008.3 |
| 20260905205638 | 35 | 220 | 4.8 | 12.9 | 0.00 | 0.00 | 0.00 | 61 | 1008.1 |
| 20260905205137 | 35 | 220 | 4.8 | 12.9 | 0.00 | 0.00 | 0.00 | 61 | 1008.1 |
| 20260905205005 | 34 | 220 | 4.8 | 12.9 | 0.00 | 0.00 | 0.00 | 59 | 1008.1 |
| 20260905204447 | 35 | 220 | 4.8 | 11.3 | 0.00 | 0.00 | 0.00 | 60 | 1008.0 |
| 20260905203638 | 35 | 220 | 4.8 | 11.3 | 0.00 | 0.00 | 0.00 | 59 | 1007.8 |
| 20260905203454 | 35 | 220 | 4.8 | 11.3 | 0.00 | 0.00 | 0.00 | 59 | 1007.8 |
| 20260905202637 | 35 | 220 | 4.8 | 14.5 | 0.00 | 0.00 | 0.00 | 59 | 1007.8 |
| 20260905202138 | 35 | 220 | 4.8 | 14.5 | 0.00 | 0.00 | 0.00 | 61 | 1007.9 |
| 20260905201636 | 35 | 220 | 4.8 | 14.5 | 0.00 | 0.00 | 0.00 | 61 | 1007.9 |
| 20260905201134 | 35 | 220 | 6.4 | 14.5 | 0.00 | 0.00 | 0.00 | 62 | 1008.0 |
| 20260905201010 | 35 | 220 | 6.4 | 14.5 | 0.00 | 0.00 | 0.00 | 60 | 1008.1 |
| 20260905200129 | 35 | 220 | 4.8 | 14.5 | 0.00 | 0.00 | 0.00 | 59 | 1008.1 |
| 20260905195629 | 35 | 220 | 4.8 | 14.5 | 0.00 | 0.00 | 0.00 | 59 | 1008.1 |
| 20260905195518 | 35 | 220 | 4.8 | 14.5 | 0.00 | 0.00 | 0.00 | 59 | 1008.2 |
| 20260905194623 | 35 | 220 | 4.8 | 14.5 | 0.00 | 0.00 | 0.00 | 61 | 1008.3 |
| 20260905194118 | 34 | 221 | 6.4 | 14.5 | 0.00 | 0.00 | 0.00 | 60 | 1008.3 |
| 20260905193611 | 34 | 221 | 4.8 | 12.9 | 0.00 | 0.00 | 0.00 | 64 | 1008.3 |
| 20260905193105 | 34 | 221 | 6.4 | 19.3 | 0.00 | 0.00 | 0.00 | 62 | 1008.5 |
| 20260905192605 | 34 | 221 | 8.0 | 19.3 | 0.00 | 0.00 | 0.00 | 65 | 1008.5 |
| 20260905192108 | 34 | 221 | 8.0 | 19.3 | 0.00 | 0.00 | 0.00 | 64 | 1008.6 |
| 20260905191610 | 33 | 221 | 9.7 | 19.3 | 0.00 | 0.00 | 0.00 | 64 | 1008.7 |
| 20260905191109 | 33 | 221 | 6.4 | 19.3 | 0.00 | 0.00 | 0.00 | 64 | 1008.8 |
| 20260905190829 | 33 | 221 | 6.4 | 16.1 | 0.00 | 0.00 | 0.00 | 61 | 1008.7 |
| 20260905190222 | 33 | 221 | 6.4 | 16.1 | 0.00 | 0.00 | 0.00 | 63 | 1008.8 |
| 20260905185106 | 33 | 221 | 6.4 | 12.9 | 0.00 | 0.00 | 0.00 | 66 | 1009.1 |
| 20260905184647 | 33 | 221 | 8.0 | 17.7 | 0.00 | 0.00 | 0.00 | 64 | 1009.3 |
| 20260905184616 | 33 | 221 | 9.7 | 17.7 | 0.00 | 0.00 | 0.00 | 64 | 1009.2 |
| 20260905183843 | 33 | 221 | 4.8 | 16.1 | 0.00 | 0.00 | 0.00 | 64 | 1009.3 |
| 20260905183456 | 33 | 221 | 4.8 | 11.3 | 0.00 | 0.00 | 0.00 | 64 | 1009.4 |
| 20260905183229 | 33 | 221 | 4.8 | 11.3 | 0.00 | 0.00 | 0.00 | 64 | 1009.4 |
| 20260905182104 | 33 | 221 | 4.8 | 12.9 | 0.00 | 0.00 | 0.00 | 66 | 1009.6 |
| 20260905181604 | 33 | 221 | 4.8 | 12.9 | 0.00 | 0.00 | 0.00 | 66 | 1009.7 |
| 20260905181103 | 33 | 221 | 4.8 | 14.5 | 0.00 | 0.00 | 0.00 | 66 | 1009.8 |
| 20260905180603 | 33 | 221 | 4.8 | 14.5 | 0.00 | 0.00 | 0.00 | 67 | 1009.8 |
| 20260905180443 | 33 | 221 | 4.8 | 12.9 | 0.00 | 0.00 | 0.00 | 66 | 1009.9 |
| 20260905175820 | 32 | 221 | 4.8 | 12.9 | 0.00 | 0.00 | 0.00 | 70 | 1010.1 |
| 20260905175510 | 32 | 221 | 4.8 | 12.9 | 0.00 | 0.00 | 0.00 | 70 | 1010.2 |
| 20260905174829 | 32 | 221 | 6.4 | 12.9 | 0.00 | 0.00 | 0.00 | 70 | 1010.3 |
| 20260905174101 | 32 | 221 | 6.4 | 12.9 | 0.00 | 0.00 | 0.00 | 67 | 1010.3 |
| 20260905173605 | 32 | 221 | 4.8 | 9.7 | 0.00 | 0.00 | 0.00 | 69 | 1010.4 |
| 20260905173101 | 32 | 221 | 6.4 | 11.3 | 0.00 | 0.00 | 0.00 | 70 | 1010.5 |
| 20260905172602 | 32 | 221 | 4.8 | 11.3 | 0.00 | 0.00 | 0.00 | 73 | 1010.6 |
| 20260905172101 | 32 | 221 | 3.2 | 8.0 | 0.00 | 0.00 | 0.00 | 71 | 1010.6 |
| 20260905171950 | 31 | 221 | 3.2 | 8.0 | 0.00 | 0.00 | 0.00 | 73 | 1010.7 |
| 20260905171102 | 31 | 221 | 3.2 | 9.7 | 0.00 | 0.00 | 0.00 | 72 | 1010.7 |
| 20260905170602 | 31 | 221 | 4.8 | 11.3 | 0.00 | 0.00 | 0.00 | 73 | 1010.8 |
| 20260905170437 | 31 | 221 | 4.8 | 11.3 | 0.00 | 0.00 | 0.00 | 73 | 1010.9 |
| 20260905165604 | 31 | 221 | 4.8 | 16.1 | 0.00 | 0.00 | 0.00 | 76 | 1010.9 |
| 20260905165108 | 31 | 221 | 4.8 | 16.1 | 0.00 | 0.00 | 0.00 | 73 | 1011.0 |
| 20260905164605 | 31 | 221 | 3.2 | 9.7 | 0.00 | 0.00 | 0.00 | 75 | 1011.0 |
| 20260905164103 | 31 | 221 | 3.2 | 8.0 | 0.00 | 0.00 | 0.00 | 73 | 1011.1 |
| 20260905163638 | 31 | 221 | 6.4 | 17.7 | 0.00 | 0.00 | 0.00 | 76 | 1011.1 |
| 20260905163621 | 31 | 221 | 4.8 | 9.7 | 0.00 | 0.00 | 0.00 | 75 | 1011.1 |
| 20260905162105 | 30 | 221 | 8.0 | 17.7 | 0.00 | 0.00 | 0.00 | 79 | 1011.2 |
| 20260905161938 | 30 | 221 | 6.4 | 17.7 | 0.00 | 0.00 | 0.00 | 79 | 1011.3 |
| 20260905161101 | 30 | 221 | 6.4 | 16.1 | 0.00 | 0.00 | 0.00 | 79 | 1011.4 |
| 20260905160952 | 30 | 221 | 8.0 | 19.3 | 0.00 | 0.00 | 0.00 | 79 | 1011.4 |
| 20260905160101 | 30 | 221 | 8.0 | 19.3 | 0.00 | 0.00 | 0.00 | 80 | 1011.5 |
| 20260905155601 | 29 | 221 | 8.0 | 17.7 | 0.00 | 0.00 | 0.00 | 79 | 1011.6 |
| 20260905155101 | 29 | 221 | 9.7 | 17.7 | 0.00 | 0.00 | 0.00 | 80 | 1011.7 |
| 20260905154606 | 29 | 221 | 11.3 | 17.7 | 0.00 | 0.00 | 0.00 | 79 | 1011.7 |
| 20260905154101 | 29 | 221 | 11.3 | 17.7 | 0.00 | 0.00 | 0.00 | 80 | 1011.7 |
| 20260905154001 | 29 | 221 | 9.7 | 17.7 | 0.00 | 0.00 | 0.00 | 78 | 1011.8 |
| 20260905153103 | 29 | 221 | 4.8 | 17.7 | 0.00 | 0.00 | 0.00 | 79 | 1011.8 |
| 20260905152602 | 29 | 221 | 6.4 | 14.5 | 0.00 | 0.00 | 0.00 | 79 | 1011.9 |
| 20260905152106 | 29 | 221 | 8.0 | 14.5 | 0.00 | 0.00 | 0.00 | 79 | 1011.9 |
| 20260905151602 | 29 | 221 | 9.7 | 16.1 | 0.00 | 0.00 | 0.00 | 80 | 1011.8 |
| 20260905151105 | 29 | 221 | 8.0 | 16.1 | 0.00 | 0.00 | 0.00 | 81 | 1011.8 |
| 20260905150602 | 29 | 221 | 9.7 | 16.1 | 0.00 | 0.00 | 0.00 | 82 | 1011.9 |
| 20260905150454 | 29 | 221 | 9.7 | 16.1 | 0.00 | 0.00 | 0.00 | 81 | 1012.0 |
| 20260905145847 | 28 | 221 | 6.4 | 16.1 | 0.00 | 0.00 | 0.00 | 82 | 1012.0 |
| 20260905145105 | 28 | 221 | 3.2 | 14.5 | 0.00 | 0.00 | 0.00 | 83 | 1012.0 |
| 20260905144603 | 28 | 221 | 4.8 | 14.5 | 0.00 | 0.00 | 0.00 | 81 | 1012.0 |
| 20260905144107 | 28 | 221 | 9.7 | 17.7 | 0.00 | 0.00 | 0.00 | 83 | 1012.0 |
| 20260905143604 | 28 | 221 | 9.7 | 17.7 | 0.00 | 0.00 | 0.00 | 84 | 1012.0 |
| 20260905143102 | 28 | 221 | 8.0 | 14.5 | 0.00 | 0.00 | 0.00 | 83 | 1012.0 |
| 20260905142606 | 28 | 221 | 8.0 | 12.9 | 0.00 | 0.00 | 0.00 | 84 | 1012.1 |
| 20260905142106 | 27 | 221 | 8.0 | 14.5 | 0.00 | 0.00 | 0.00 | 85 | 1012.0 |
| 20260905141602 | 27 | 221 | 8.0 | 14.5 | 0.00 | 0.00 | 0.00 | 85 | 1012.0 |
| 20260905141102 | 27 | 221 | 6.4 | 12.9 | 0.00 | 0.00 | 0.00 | 85 | 1012.0 |
| 20260905140602 | 27 | 221 | 6.4 | 12.9 | 0.00 | 0.00 | 0.00 | 85 | 1012.0 |
| 20260905140106 | 27 | 221 | 8.0 | 14.5 | 0.00 | 0.00 | 0.00 | 85 | 1012.0 |
| 20260905140023 | 27 | 221 | 8.0 | 14.5 | 0.00 | 0.00 | 0.00 | 85 | 1012.1 |
| 20260905135103 | 27 | 221 | 6.4 | 11.3 | 0.00 | 0.00 | 0.00 | 86 | 1012.1 |
| 20260905134605 | 27 | 221 | 6.4 | 11.3 | 0.00 | 0.00 | 0.00 | 86 | 1012.0 |
| 20260905134443 | 27 | 221 | 4.8 | 12.9 | 0.00 | 0.00 | 0.00 | 86 | 1012.1 |
| 20260905133608 | 27 | 221 | 3.2 | 12.9 | 0.00 | 0.00 | 0.00 | 86 | 1012.1 |
| 20260905133108 | 27 | 221 | 3.2 | 8.0 | 0.00 | 0.00 | 0.00 | 86 | 1012.0 |
| 20260905132604 | 27 | 221 | 4.8 | 12.9 | 0.00 | 0.00 | 0.00 | 86 | 1012.1 |
| 20260905132109 | 27 | 221 | 4.8 | 14.5 | 0.00 | 0.00 | 0.00 | 86 | 1012.0 |
| 20260905131611 | 27 | 221 | 3.2 | 14.5 | 0.00 | 0.00 | 0.00 | 86 | 1012.1 |
| 20260905131113 | 27 | 221 | 8.0 | 14.5 | 0.00 | 0.00 | 0.00 | 87 | 1012.1 |
| 20260905130609 | 27 | 221 | 9.7 | 14.5 | 0.00 | 0.00 | 0.00 | 86 | 1012.1 |
| 20260905130107 | 27 | 221 | 8.0 | 12.9 | 0.00 | 0.00 | 0.00 | 87 | 1012.0 |
| 20260905125604 | 27 | 221 | 4.8 | 11.3 | 0.00 | 0.00 | 0.00 | 87 | 1011.9 |
| 20260905125104 | 27 | 221 | 4.8 | 11.3 | 0.00 | 0.00 | 0.00 | 87 | 1011.8 |
| 20260905124601 | 27 | 221 | 4.8 | 11.3 | 0.00 | 0.00 | 0.00 | 87 | 1011.8 |
| 20260905124101 | 26 | 221 | 4.8 | 11.3 | 0.00 | 0.00 | 0.00 | 88 | 1011.7 |
| 20260905123612 | 26 | 221 | 6.4 | 11.3 | 0.00 | 0.00 | 0.00 | 88 | 1011.7 |
| 20260905123102 | 26 | 221 | 6.4 | 11.3 | 0.00 | 0.00 | 0.00 | 89 | 1011.7 |
| 20260905122602 | 26 | 221 | 3.2 | 9.7 | 0.00 | 0.00 | 0.00 | 90 | 1011.6 |
| 20260905122104 | 26 | 221 | 3.2 | 9.7 | 0.00 | 0.00 | 0.00 | 91 | 1011.7 |
| 20260905122030 | 26 | 221 | 4.8 | 9.7 | 0.00 | 0.00 | 0.00 | 91 | 1011.7 |
| 20260905121104 | 25 | 221 | 3.2 | 9.7 | 0.00 | 0.00 | 0.00 | 92 | 1011.6 |
| 20260905120632 | 25 | 221 | 3.2 | 6.4 | 0.00 | 0.00 | 0.00 | 92 | 1011.5 |
| 20260905120124 | 25 | 221 | 1.6 | 4.8 | 0.00 | 0.00 | 0.00 | 92 | 1011.5 |
| 20260905115607 | 25 | 222 | 0.0 | 4.8 | 0.00 | 0.00 | 0.00 | 93 | 1011.5 |
| 20260905115104 | 25 | 222 | 0.0 | 1.6 | 0.00 | 0.00 | 0.00 | 93 | 1011.5 |
| 20260905114722 | 25 | 222 | 0.0 | 1.6 | 0.00 | 0.00 | 0.00 | 93 | 1011.4 |